Time,TemperatureF,DewpointF,PressureIn,WindDirection,WindDirectionDegrees,WindSpeedMPH,WindSpeedGustMPH,Humidity,HourlyPrecipIn,Conditions,Clouds,dailyrainin,SoftwareType,DateUTC
2013-05-16 00:00:00,58.3,51.8,29.73,WNW,295,0.0,0.0,79,0.00,,,0.00,WeatherCatV1.15B25,2013-05-16 04:00:00,
2013-05-16 00:01:00,58.3,51.8,29.73,WNW,295,0.0,0.0,79,0.00,,,0.00,WeatherCatV1.15B25,2013-05-16 04:01:00,
2013-05-16 00:03:00,58.3,51.8,29.73,WNW,295,0.0,0.0,79,0.00,,,0.00,WeatherCatV1.15B25,2013-05-16 04:03:00,
2013-05-16 00:04:00,58.3,51.8,29.72,WNW,295,0.0,0.0,79,0.00,,,0.00,WeatherCatV1.15B25,2013-05-16 04:04:00,
2013-05-16 00:05:00,58.2,51.7,29.72,WNW,295,0.0,0.0,79,0.00,,,0.00,WeatherCatV1.15B25,2013-05-16 04:05:00,
2013-05-16 00:07:00,58.2,51.7,29.73,WNW,295,0.0,0.0,79,0.00,,,0.00,WeatherCatV1.15B25,2013-05-16 04:07:00,
2013-05-16 00:12:00,58.1,51.6,29.72,WNW,295,0.0,0.0,79,0.00,,,0.00,WeatherCatV1.15B25,2013-05-16 04:12:00,
2013-05-16 00:17:00,57.9,51.4,29.73,WNW,295,0.0,0.0,79,0.00,,,0.00,WeatherCatV1.15B25,2013-05-16 04:17:00,
2013-05-16 00:22:00,57.8,51.3,29.73,WNW,295,0.0,0.0,79,0.00,,,0.00,WeatherCatV1.15B25,2013-05-16 04:22:00,
2013-05-16 00:27:00,57.7,51.2,29.73,WNW,295,0.0,0.0,79,0.00,,,0.00,WeatherCatV1.15B25,2013-05-16 04:27:00,
2013-05-16 00:32:00,57.4,51.3,29.74,WNW,295,0.0,0.0,80,0.00,,,0.00,WeatherCatV1.15B25,2013-05-16 04:32:00,
2013-05-16 00:37:00,57.2,51.1,29.74,WNW,295,0.0,0.0,80,0.00,,,0.00,WeatherCatV1.15B25,2013-05-16 04:37:00,
2013-05-16 00:42:00,57.1,51.3,29.74,WNW,295,0.0,0.0,81,0.00,,,0.00,WeatherCatV1.15B25,2013-05-16 04:42:00,
2013-05-16 00:47:00,57.0,51.2,29.74,WNW,295,0.0,0.0,81,0.00,,,0.00,WeatherCatV1.15B25,2013-05-16 04:47:00,
2013-05-16 00:52:00,56.8,51.0,29.74,WNW,295,0.0,0.0,81,0.00,,,0.00,WeatherCatV1.15B25,2013-05-16 04:52:00,
2013-05-16 00:57:00,56.6,50.8,29.73,WNW,295,0.0,0.0,81,0.00,,,0.00,WeatherCatV1.15B25,2013-05-16 04:57:00,
2013-05-16 01:02:00,56.5,51.1,29.73,WNW,295,0.0,0.0,82,0.00,,,0.00,WeatherCatV1.15B25,2013-05-16 05:02:00,
2013-05-16 01:07:00,56.4,51.0,29.73,WNW,295,0.0,0.0,82,0.00,,,0.00,WeatherCatV1.15B25,2013-05-16 05:07:00,
2013-05-16 01:12:00,56.4,51.3,29.74,WNW,295,0.0,0.0,83,0.00,,,0.00,WeatherCatV1.15B25,2013-05-16 05:12:00,
2013-05-16 01:17:00,56.3,50.9,29.74,WNW,295,0.0,0.0,82,0.00,,,0.00,WeatherCatV1.15B25,2013-05-16 05:17:00,
2013-05-16 01:22:00,56.3,51.2,29.74,WNW,295,0.0,0.0,83,0.00,,,0.00,WeatherCatV1.15B25,2013-05-16 05:22:00,
2013-05-16 01:27:00,56.2,51.1,29.74,WNW,295,0.0,0.0,83,0.00,,,0.00,WeatherCatV1.15B25,2013-05-16 05:27:00,
2013-05-16 01:32:00,56.1,51.0,29.74,WNW,295,0.0,0.0,83,0.00,,,0.00,WeatherCatV1.15B25,2013-05-16 05:32:00,
2013-05-16 01:37:00,56.0,50.9,29.74,WNW,295,0.0,0.0,83,0.00,,,0.00,WeatherCatV1.15B25,2013-05-16 05:37:00,
2013-05-16 01:42:00,55.9,50.8,29.74,WNW,295,0.0,0.0,83,0.00,,,0.00,WeatherCatV1.15B25,2013-05-16 05:42:00,
2013-05-16 01:47:00,55.7,50.6,29.74,WNW,295,0.0,0.0,83,0.00,,,0.00,WeatherCatV1.15B25,2013-05-16 05:47:00,
2013-05-16 01:52:00,55.6,50.8,29.74,WNW,295,0.0,0.0,84,0.00,,,0.00,WeatherCatV1.15B25,2013-05-16 05:52:00,
2013-05-16 01:57:00,55.4,50.6,29.74,WNW,295,0.0,0.0,84,0.00,,,0.00,WeatherCatV1.15B25,2013-05-16 05:57:00,
2013-05-16 02:02:00,55.2,50.4,29.75,WNW,295,0.0,0.0,84,0.00,,,0.00,WeatherCatV1.15B25,2013-05-16 06:02:00,
2013-05-16 02:07:00,55.0,50.3,29.75,WNW,295,0.0,0.0,84,0.00,,,0.00,WeatherCatV1.15B25,2013-05-16 06:07:00,
2013-05-16 02:12:00,54.9,50.2,29.75,WNW,295,0.0,0.0,84,0.00,,,0.00,WeatherCatV1.15B25,2013-05-16 06:12:00,
2013-05-16 02:17:00,54.7,50.3,29.75,WNW,295,0.0,0.0,85,0.00,,,0.00,WeatherCatV1.15B25,2013-05-16 06:17:00,
2013-05-16 02:22:00,54.6,50.2,29.75,WNW,295,0.0,0.0,85,0.00,,,0.00,WeatherCatV1.15B25,2013-05-16 06:22:00,
2013-05-16 02:27:00,54.5,50.1,29.75,WNW,295,0.0,0.0,85,0.00,,,0.00,WeatherCatV1.15B25,2013-05-16 06:27:00,
2013-05-16 02:32:00,54.4,50.0,29.75,WNW,295,0.0,0.0,85,0.00,,,0.00,WeatherCatV1.15B25,2013-05-16 06:32:00,
2013-05-16 02:37:00,54.2,49.8,29.75,WNW,295,0.0,0.0,85,0.00,,,0.00,WeatherCatV1.15B25,2013-05-16 06:37:00,
2013-05-16 02:42:00,54.2,50.1,29.75,WNW,295,0.0,0.0,86,0.00,,,0.00,WeatherCatV1.15B25,2013-05-16 06:42:00,
2013-05-16 02:47:00,54.0,49.9,29.75,WNW,295,0.0,0.0,86,0.00,,,0.00,WeatherCatV1.15B25,2013-05-16 06:47:00,
2013-05-16 02:52:00,53.8,49.7,29.75,WNW,295,0.0,0.0,86,0.00,,,0.00,WeatherCatV1.15B25,2013-05-16 06:52:00,
2013-05-16 02:57:00,53.6,49.5,29.75,WNW,295,0.0,0.0,86,0.00,,,0.00,WeatherCatV1.15B25,2013-05-16 06:57:00,
2013-05-16 03:02:00,53.4,49.6,29.75,WNW,295,0.0,0.0,87,0.00,,,0.00,WeatherCatV1.15B25,2013-05-16 07:02:00,
2013-05-16 03:07:00,53.3,49.2,29.75,WNW,295,0.0,0.0,86,0.00,,,0.00,WeatherCatV1.15B25,2013-05-16 07:07:00,
2013-05-16 03:12:00,53.2,49.4,29.75,WNW,295,0.0,0.0,87,0.00,,,0.00,WeatherCatV1.15B25,2013-05-16 07:12:00,
2013-05-16 03:17:00,53.0,49.2,29.75,WNW,295,0.0,0.0,87,0.00,,,0.00,WeatherCatV1.15B25,2013-05-16 07:17:00,
2013-05-16 03:22:00,52.8,49.0,29.75,WNW,295,0.0,0.0,87,0.00,,,0.00,WeatherCatV1.15B25,2013-05-16 07:22:00,
2013-05-16 03:27:00,52.5,48.7,29.75,WNW,295,0.0,0.0,87,0.00,,,0.00,WeatherCatV1.15B25,2013-05-16 07:27:00,
2013-05-16 03:32:00,52.4,48.6,29.75,WNW,295,0.0,0.0,87,0.00,,,0.00,WeatherCatV1.15B25,2013-05-16 07:32:00,
2013-05-16 03:37:00,52.2,48.4,29.75,WNW,295,0.0,0.0,87,0.00,,,0.00,WeatherCatV1.15B25,2013-05-16 07:37:00,
2013-05-16 03:42:00,52.1,48.3,29.75,WNW,295,0.0,0.0,87,0.00,,,0.00,WeatherCatV1.15B25,2013-05-16 07:42:00,
2013-05-16 03:47:00,52.0,48.3,29.75,WNW,295,0.0,0.0,87,0.00,,,0.00,WeatherCatV1.15B25,2013-05-16 07:47:00,
2013-05-16 03:52:00,51.8,48.4,29.75,WNW,295,0.0,0.0,88,0.00,,,0.00,WeatherCatV1.15B25,2013-05-16 07:52:00,
2013-05-16 03:57:00,51.7,48.3,29.75,WNW,295,0.0,0.0,88,0.00,,,0.00,WeatherCatV1.15B25,2013-05-16 07:57:00,
2013-05-16 04:02:00,51.5,48.1,29.76,WNW,295,0.0,0.0,88,0.00,,,0.00,WeatherCatV1.15B25,2013-05-16 08:02:00,
2013-05-16 04:07:00,51.4,48.0,29.76,WNW,295,0.0,0.0,88,0.00,,,0.00,WeatherCatV1.15B25,2013-05-16 08:07:00,
2013-05-16 04:12:00,51.3,47.9,29.76,WNW,295,0.0,0.0,88,0.00,,,0.00,WeatherCatV1.15B25,2013-05-16 08:12:00,
2013-05-16 04:17:00,51.1,47.7,29.76,WNW,295,0.0,0.0,88,0.00,,,0.00,WeatherCatV1.15B25,2013-05-16 08:17:00,
2013-05-16 04:22:00,51.0,47.6,29.76,WNW,295,0.0,0.0,88,0.00,,,0.00,WeatherCatV1.15B25,2013-05-16 08:22:00,
2013-05-16 04:27:00,50.9,47.5,29.76,WNW,295,0.0,0.0,88,0.00,,,0.00,WeatherCatV1.15B25,2013-05-16 08:27:00,
2013-05-16 04:32:00,50.9,47.5,29.77,WNW,295,0.0,0.0,88,0.00,,,0.00,WeatherCatV1.15B25,2013-05-16 08:32:00,
2013-05-16 04:37:00,50.7,47.3,29.77,WNW,295,0.0,0.0,88,0.00,,,0.00,WeatherCatV1.15B25,2013-05-16 08:37:00,
2013-05-16 04:42:00,50.6,47.2,29.77,WNW,295,0.0,0.0,88,0.00,,,0.00,WeatherCatV1.15B25,2013-05-16 08:42:00,
2013-05-16 04:47:00,50.5,47.1,29.77,WNW,295,0.0,0.0,88,0.00,,,0.00,WeatherCatV1.15B25,2013-05-16 08:47:00,
2013-05-16 04:52:00,50.3,47.2,29.77,WNW,295,0.0,0.0,89,0.00,,,0.00,WeatherCatV1.15B25,2013-05-16 08:52:00,
2013-05-16 04:57:00,50.3,47.2,29.77,WNW,295,0.0,0.0,89,0.00,,,0.00,WeatherCatV1.15B25,2013-05-16 08:57:00,
2013-05-16 05:02:00,50.2,47.1,29.77,WNW,295,0.0,0.0,89,0.00,,,0.00,WeatherCatV1.15B25,2013-05-16 09:02:00,
2013-05-16 05:07:00,50.1,47.0,29.77,WNW,295,0.0,0.0,89,0.00,,,0.00,WeatherCatV1.15B25,2013-05-16 09:07:00,
2013-05-16 05:12:00,50.0,46.9,29.78,WNW,295,0.0,0.0,89,0.00,,,0.00,WeatherCatV1.15B25,2013-05-16 09:12:00,
2013-05-16 05:17:00,49.8,46.7,29.78,WNW,295,0.0,0.0,89,0.00,,,0.00,WeatherCatV1.15B25,2013-05-16 09:17:00,
2013-05-16 05:22:00,49.7,46.6,29.78,WNW,295,0.0,0.0,89,0.00,,,0.00,WeatherCatV1.15B25,2013-05-16 09:22:00,
2013-05-16 05:27:00,49.6,46.5,29.78,WNW,295,0.0,0.0,89,0.00,,,0.00,WeatherCatV1.15B25,2013-05-16 09:27:00,
2013-05-16 05:32:00,49.5,46.4,29.78,WNW,295,0.0,0.0,89,0.00,,,0.00,WeatherCatV1.15B25,2013-05-16 09:32:00,
2013-05-16 05:37:00,49.4,46.3,29.78,WNW,295,0.0,0.0,89,0.00,,,0.00,WeatherCatV1.15B25,2013-05-16 09:37:00,
2013-05-16 05:42:00,49.3,46.2,29.79,WNW,295,0.0,0.0,89,0.00,,,0.00,WeatherCatV1.15B25,2013-05-16 09:42:00,
2013-05-16 05:47:00,49.1,46.0,29.79,WNW,295,0.0,0.0,89,0.00,,,0.00,WeatherCatV1.15B25,2013-05-16 09:47:00,
2013-05-16 05:52:00,49.0,45.9,29.80,WNW,295,0.0,0.0,89,0.00,,,0.00,WeatherCatV1.15B25,2013-05-16 09:52:00,
2013-05-16 05:57:00,48.9,45.8,29.80,WNW,295,0.0,0.0,89,0.00,,,0.00,WeatherCatV1.15B25,2013-05-16 09:57:00,
2013-05-16 06:02:00,48.9,45.8,29.80,WNW,295,0.0,0.0,89,0.00,,,0.00,WeatherCatV1.15B25,2013-05-16 10:02:00,
2013-05-16 06:07:00,48.8,45.7,29.80,WNW,295,0.0,0.0,89,0.00,,,0.00,WeatherCatV1.15B25,2013-05-16 10:07:00,
2013-05-16 06:12:00,48.7,45.6,29.81,WNW,295,0.0,0.0,89,0.00,,,0.00,WeatherCatV1.15B25,2013-05-16 10:12:00,
2013-05-16 06:17:00,48.7,45.6,29.81,WNW,295,0.0,0.0,89,0.00,,,0.00,WeatherCatV1.15B25,2013-05-16 10:17:00,
2013-05-16 06:22:00,48.7,45.9,29.81,WNW,295,0.0,0.0,90,0.00,,,0.00,WeatherCatV1.15B25,2013-05-16 10:22:00,
2013-05-16 06:27:00,48.8,46.0,29.81,WNW,295,0.0,0.0,90,0.00,,,0.00,WeatherCatV1.15B25,2013-05-16 10:27:00,
2013-05-16 06:32:00,48.9,46.1,29.81,WNW,295,0.0,0.0,90,0.00,,,0.00,WeatherCatV1.15B25,2013-05-16 10:32:00,
2013-05-16 06:37:00,49.0,46.2,29.81,WSW,257,0.0,0.0,90,0.00,,,0.00,WeatherCatV1.15B25,2013-05-16 10:37:00,
2013-05-16 06:42:00,48.8,46.0,29.81,SSW,213,0.0,0.0,90,0.00,,,0.00,WeatherCatV1.15B25,2013-05-16 10:42:00,
2013-05-16 06:47:00,48.8,46.0,29.81,SSW,213,0.0,0.0,90,0.00,,,0.00,WeatherCatV1.15B25,2013-05-16 10:47:00,
2013-05-16 06:52:00,48.9,46.1,29.82,SSW,213,0.0,0.0,90,0.00,,,0.00,WeatherCatV1.15B25,2013-05-16 10:52:00,
2013-05-16 06:57:00,49.1,46.3,29.82,SSW,213,0.0,0.0,90,0.00,,,0.00,WeatherCatV1.15B25,2013-05-16 10:57:00,
2013-05-16 07:02:00,49.4,46.6,29.82,SSW,213,0.0,0.0,90,0.00,,,0.00,WeatherCatV1.15B25,2013-05-16 11:02:00,
2013-05-16 07:07:00,49.7,46.9,29.82,SSW,213,0.0,0.0,90,0.00,,,0.00,WeatherCatV1.15B25,2013-05-16 11:07:00,
2013-05-16 07:12:00,50.0,47.2,29.82,SSW,213,0.0,0.0,90,0.00,,,0.00,WeatherCatV1.15B25,2013-05-16 11:12:00,
2013-05-16 07:17:00,50.4,47.6,29.82,SSW,213,0.0,0.0,90,0.00,,,0.00,WeatherCatV1.15B25,2013-05-16 11:17:00,
2013-05-16 07:22:00,51.0,48.5,29.82,SSW,213,0.0,0.0,91,0.00,,,0.00,WeatherCatV1.15B25,2013-05-16 11:22:00,
2013-05-16 07:27:00,51.7,49.2,29.82,SSW,213,0.0,0.0,91,0.00,,,0.00,WeatherCatV1.15B25,2013-05-16 11:27:00,
2013-05-16 07:32:00,52.1,49.3,29.82,SSW,213,0.0,0.0,90,0.00,,,0.00,WeatherCatV1.15B25,2013-05-16 11:32:00,
2013-05-16 07:37:00,52.5,49.7,29.82,SSW,213,0.0,0.0,90,0.00,,,0.00,WeatherCatV1.15B25,2013-05-16 11:37:00,
2013-05-16 07:42:00,53.2,50.3,29.82,SSW,213,0.0,0.0,90,0.00,,,0.00,WeatherCatV1.15B25,2013-05-16 11:42:00,
2013-05-16 07:47:00,53.9,51.0,29.82,SSW,213,0.0,0.0,90,0.00,,,0.00,WeatherCatV1.15B25,2013-05-16 11:47:00,
2013-05-16 07:52:00,54.6,51.4,29.82,SSW,213,1.0,3.0,89,0.00,,,0.00,WeatherCatV1.15B25,2013-05-16 11:52:00,
2013-05-16 07:57:00,55.2,51.7,29.83,SSW,213,0.0,0.0,88,0.00,,,0.00,WeatherCatV1.15B25,2013-05-16 11:57:00,
2013-05-16 08:02:00,56.1,52.6,29.83,SSW,213,0.0,0.0,88,0.00,,,0.00,WeatherCatV1.15B25,2013-05-16 12:02:00,
2013-05-16 08:07:00,56.8,53.0,29.83,SSW,213,0.0,0.0,87,0.00,,,0.00,WeatherCatV1.15B25,2013-05-16 12:07:00,
2013-05-16 08:12:00,57.4,52.9,29.83,SSW,213,0.0,2.0,85,0.00,,,0.00,WeatherCatV1.15B25,2013-05-16 12:12:00,
2013-05-16 08:17:00,58.1,53.3,29.83,SSW,213,0.0,0.0,84,0.00,,,0.00,WeatherCatV1.15B25,2013-05-16 12:17:00,
2013-05-16 08:22:00,58.9,53.4,29.83,SSW,213,0.0,0.0,82,0.00,,,0.00,WeatherCatV1.15B25,2013-05-16 12:22:00,
2013-05-16 08:27:00,59.8,53.3,29.84,NW,304,0.0,0.0,79,0.00,,,0.00,WeatherCatV1.15B25,2013-05-16 12:27:00,
2013-05-16 08:32:00,60.6,53.3,29.84,NW,304,0.0,0.0,77,0.00,,,0.00,WeatherCatV1.15B25,2013-05-16 12:32:00,
2013-05-16 08:37:00,61.2,52.1,29.84,WNW,303,0.0,0.0,72,0.00,,,0.00,WeatherCatV1.15B25,2013-05-16 12:37:00,
2013-05-16 08:42:00,61.9,52.0,29.83,WSW,237,2.0,3.0,70,0.00,,,0.00,WeatherCatV1.15B25,2013-05-16 12:42:00,
2013-05-16 08:47:00,62.5,51.0,29.83,WSW,237,0.0,0.0,66,0.00,,,0.00,WeatherCatV1.15B25,2013-05-16 12:47:00,
2013-05-16 08:52:00,63.3,52.2,29.84,WSW,249,0.0,0.0,67,0.00,,,0.00,WeatherCatV1.15B25,2013-05-16 12:52:00,
2013-05-16 08:57:00,63.9,50.6,29.84,WSW,249,0.0,2.0,62,0.00,,,0.00,WeatherCatV1.15B25,2013-05-16 12:57:00,
2013-05-16 09:02:00,64.3,49.7,29.84,WSW,249,0.0,1.0,59,0.00,,,0.00,WeatherCatV1.15B25,2013-05-16 13:02:00,
2013-05-16 09:07:00,64.7,48.6,29.85,WSW,249,3.0,3.0,56,0.00,,,0.00,WeatherCatV1.15B25,2013-05-16 13:07:00,
2013-05-16 09:12:00,65.1,49.0,29.84,WSW,247,2.0,3.0,56,0.00,,,0.00,WeatherCatV1.15B25,2013-05-16 13:12:00,
2013-05-16 09:17:00,65.6,49.9,29.85,WSW,242,0.0,0.0,57,0.00,,,0.00,WeatherCatV1.15B25,2013-05-16 13:17:00,
2013-05-16 09:22:00,66.0,48.4,29.85,WSW,237,4.0,4.0,53,0.00,,,0.00,WeatherCatV1.15B25,2013-05-16 13:22:00,
2013-05-16 09:27:00,66.4,48.2,29.85,SW,229,0.0,3.0,52,0.00,,,0.00,WeatherCatV1.15B25,2013-05-16 13:27:00,
2013-05-16 09:32:00,66.8,48.1,29.85,WNW,298,0.0,0.0,51,0.00,,,0.00,WeatherCatV1.15B25,2013-05-16 13:32:00,
2013-05-16 09:37:00,67.2,49.0,29.85,SW,236,0.0,2.0,52,0.00,,,0.00,WeatherCatV1.15B25,2013-05-16 13:37:00,
2013-05-16 09:42:00,67.6,48.3,29.85,SW,236,0.0,3.0,50,0.00,,,0.00,WeatherCatV1.15B25,2013-05-16 13:42:00,
2013-05-16 09:47:00,68.0,49.2,29.85,SW,225,0.0,0.0,51,0.00,,,0.00,WeatherCatV1.15B25,2013-05-16 13:47:00,
2013-05-16 09:52:00,68.5,48.0,29.85,SW,225,0.0,0.0,48,0.00,,,0.00,WeatherCatV1.15B25,2013-05-16 13:52:00,
2013-05-16 09:57:00,69.0,47.3,29.85,WSW,250,0.0,0.0,46,0.00,,,0.00,WeatherCatV1.15B25,2013-05-16 13:57:00,
2013-05-16 10:02:00,69.2,45.7,29.85,WSW,258,3.0,4.0,43,0.00,,,0.00,WeatherCatV1.15B25,2013-05-16 14:02:00,
2013-05-16 10:07:00,69.5,45.4,29.85,WSW,237,2.0,3.0,42,0.00,,,0.00,WeatherCatV1.15B25,2013-05-16 14:07:00,
2013-05-16 10:12:00,69.8,45.7,29.85,WSW,246,1.0,5.0,42,0.00,,,0.00,WeatherCatV1.15B25,2013-05-16 14:12:00,
2013-05-16 10:17:00,70.3,46.7,29.85,SW,236,0.0,0.0,43,0.00,,,0.00,WeatherCatV1.15B25,2013-05-16 14:17:00,
2013-05-16 10:22:00,71.0,48.0,29.85,SW,236,0.0,0.0,44,0.00,,,0.00,WeatherCatV1.15B25,2013-05-16 14:22:00,
2013-05-16 10:27:00,71.4,45.8,29.85,West,268,0.0,4.0,40,0.00,,,0.00,WeatherCatV1.15B25,2013-05-16 14:27:00,
2013-05-16 10:32:00,71.5,47.2,29.85,West,272,2.0,3.0,42,0.00,,,0.00,WeatherCatV1.15B25,2013-05-16 14:32:00,
2013-05-16 10:37:00,70.9,46.7,29.85,WNW,290,2.0,5.0,42,0.00,,,0.00,WeatherCatV1.15B25,2013-05-16 14:37:00,
2013-05-16 10:42:00,68.8,45.4,29.85,SW,234,3.0,7.0,43,0.00,,,0.00,WeatherCatV1.15B25,2013-05-16 14:42:00,
2013-05-16 10:47:00,67.1,49.4,29.86,WNW,296,5.0,6.0,53,0.00,,,0.00,WeatherCatV1.15B25,2013-05-16 14:47:00,
2013-05-16 10:52:00,66.2,48.0,29.86,SW,225,2.0,5.0,52,0.00,,,0.00,WeatherCatV1.15B25,2013-05-16 14:52:00,
2013-05-16 10:57:00,66.0,46.3,29.86,WNW,292,0.0,4.0,49,0.00,,,0.00,WeatherCatV1.15B25,2013-05-16 14:57:00,
2013-05-16 11:02:00,66.6,47.4,29.87,WNW,290,4.0,4.0,50,0.00,,,0.00,WeatherCatV1.15B25,2013-05-16 15:02:00,
2013-05-16 11:07:00,66.4,47.2,29.87,West,261,3.0,7.0,50,0.00,,,0.00,WeatherCatV1.15B25,2013-05-16 15:07:00,
2013-05-16 11:12:00,66.9,48.7,29.87,WNW,296,4.0,5.0,52,0.00,,,0.00,WeatherCatV1.15B25,2013-05-16 15:12:00,
2013-05-16 11:17:00,67.4,49.2,29.87,NW,307,1.0,4.0,52,0.00,,,0.00,WeatherCatV1.15B25,2013-05-16 15:17:00,
2013-05-16 11:22:00,67.9,45.8,29.87,WSW,247,4.0,6.0,45,0.00,,,0.00,WeatherCatV1.15B25,2013-05-16 15:22:00,
2013-05-16 11:27:00,68.9,47.8,29.87,West,280,4.0,6.0,47,0.00,,,0.00,WeatherCatV1.15B25,2013-05-16 15:27:00,
2013-05-16 11:32:00,69.7,44.3,29.87,West,278,1.0,4.0,40,0.00,,,0.00,WeatherCatV1.15B25,2013-05-16 15:32:00,
2013-05-16 11:37:00,70.6,45.7,29.87,WSW,242,3.0,3.0,41,0.00,,,0.00,WeatherCatV1.15B25,2013-05-16 15:37:00,
2013-05-16 11:42:00,71.3,46.4,29.87,WSW,249,3.0,4.0,41,0.00,,,0.00,WeatherCatV1.15B25,2013-05-16 15:42:00,
2013-05-16 11:47:00,71.7,44.7,29.87,WNW,302,0.0,5.0,38,0.00,,,0.00,WeatherCatV1.15B25,2013-05-16 15:47:00,
2013-05-16 11:52:00,71.9,44.2,29.87,WNW,301,1.0,4.0,37,0.00,,,0.00,WeatherCatV1.15B25,2013-05-16 15:52:00,
2013-05-16 11:57:00,71.7,41.8,29.87,WSW,241,2.0,5.0,34,0.00,,,0.00,WeatherCatV1.15B25,2013-05-16 15:57:00,
2013-05-16 12:02:00,71.6,43.2,29.87,WSW,240,3.0,9.0,36,0.00,,,0.00,WeatherCatV1.15B25,2013-05-16 16:02:00,
2013-05-16 12:07:00,71.7,41.8,29.87,West,263,3.0,6.0,34,0.00,,,0.00,WeatherCatV1.15B25,2013-05-16 16:07:00,
2013-05-16 12:12:00,71.7,45.4,29.87,West,260,2.0,3.0,39,0.00,,,0.00,WeatherCatV1.15B25,2013-05-16 16:12:00,
2013-05-16 12:17:00,72.0,43.6,29.87,West,280,4.0,5.0,36,0.00,,,0.00,WeatherCatV1.15B25,2013-05-16 16:17:00,
2013-05-16 12:22:00,71.8,44.1,29.87,WNW,287,2.0,7.0,37,0.00,,,0.00,WeatherCatV1.15B25,2013-05-16 16:22:00,
2013-05-16 12:27:00,71.8,44.1,29.87,West,261,2.0,7.0,37,0.00,,,0.00,WeatherCatV1.15B25,2013-05-16 16:27:00,
2013-05-16 12:32:00,71.5,46.5,29.87,West,274,5.0,6.0,41,0.00,,,0.00,WeatherCatV1.15B25,2013-05-16 16:32:00,
2013-05-16 12:37:00,71.1,46.2,29.87,WNW,289,4.0,4.0,41,0.00,,,0.00,WeatherCatV1.15B25,2013-05-16 16:37:00,
2013-05-16 12:42:00,71.3,43.0,29.86,SW,221,6.0,7.0,36,0.00,,,0.00,WeatherCatV1.15B25,2013-05-16 16:42:00,
2013-05-16 12:47:00,71.7,43.3,29.87,WNW,298,7.0,7.0,36,0.00,,,0.00,WeatherCatV1.15B25,2013-05-16 16:47:00,
2013-05-16 12:52:00,71.9,44.9,29.87,SW,217,4.0,9.0,38,0.00,,,0.00,WeatherCatV1.15B25,2013-05-16 16:52:00,
2013-05-16 12:57:00,71.4,44.5,29.87,SW,221,4.0,5.0,38,0.00,,,0.00,WeatherCatV1.15B25,2013-05-16 16:57:00,
2013-05-16 13:02:00,71.9,46.9,29.87,West,261,4.0,4.0,41,0.00,,,0.00,WeatherCatV1.15B25,2013-05-16 17:02:00,
2013-05-16 13:07:00,71.8,46.8,29.87,West,269,0.0,5.0,41,0.00,,,0.00,WeatherCatV1.15B25,2013-05-16 17:07:00,
2013-05-16 13:12:00,71.4,45.1,29.87,WNW,292,4.0,10.0,39,0.00,,,0.00,WeatherCatV1.15B25,2013-05-16 17:12:00,
2013-05-16 13:17:00,71.9,44.9,29.87,WNW,295,5.0,6.0,38,0.00,,,0.00,WeatherCatV1.15B25,2013-05-16 17:17:00,
2013-05-16 13:22:00,72.6,44.1,29.87,SW,222,4.0,6.0,36,0.00,,,0.00,WeatherCatV1.15B25,2013-05-16 17:22:00,
2013-05-16 13:27:00,72.3,42.3,29.87,SSW,210,4.0,6.0,34,0.00,,,0.00,WeatherCatV1.15B25,2013-05-16 17:27:00,
2013-05-16 13:32:00,72.9,43.6,29.87,West,265,3.0,8.0,35,0.00,,,0.00,WeatherCatV1.15B25,2013-05-16 17:32:00,
2013-05-16 13:37:00,73.0,45.2,29.87,WSW,246,2.0,10.0,37,0.00,,,0.00,WeatherCatV1.15B25,2013-05-16 17:37:00,
2013-05-16 13:42:00,73.5,46.3,29.87,WNW,284,4.0,5.0,38,0.00,,,0.00,WeatherCatV1.15B25,2013-05-16 17:42:00,
2013-05-16 13:47:00,73.4,40.1,29.87,WSW,250,4.0,11.0,30,0.00,,,0.00,WeatherCatV1.15B25,2013-05-16 17:47:00,
2013-05-16 13:52:00,73.4,43.3,29.87,West,275,4.0,6.0,34,0.00,,,0.00,WeatherCatV1.15B25,2013-05-16 17:52:00,
2013-05-16 13:57:00,74.0,40.6,29.86,SW,218,4.0,9.0,30,0.00,,,0.00,WeatherCatV1.15B25,2013-05-16 17:57:00,
2013-05-16 14:02:00,74.5,43.5,29.86,West,267,3.0,4.0,33,0.00,,,0.00,WeatherCatV1.15B25,2013-05-16 18:02:00,
2013-05-16 14:07:00,74.9,44.6,29.86,West,266,3.0,5.0,34,0.00,,,0.00,WeatherCatV1.15B25,2013-05-16 18:07:00,
2013-05-16 14:12:00,75.0,42.3,29.87,WSW,257,2.0,6.0,31,0.00,,,0.00,WeatherCatV1.15B25,2013-05-16 18:12:00,
2013-05-16 14:17:00,74.5,40.1,29.86,WSW,240,7.0,9.0,29,0.00,,,0.00,WeatherCatV1.15B25,2013-05-16 18:17:00,
2013-05-16 14:22:00,74.9,42.2,29.86,WSW,253,4.0,6.0,31,0.00,,,0.00,WeatherCatV1.15B25,2013-05-16 18:22:00,
2013-05-16 14:27:00,75.2,41.6,29.87,West,264,2.0,8.0,30,0.00,,,0.00,WeatherCatV1.15B25,2013-05-16 18:27:00,
2013-05-16 14:32:00,74.9,42.2,29.87,SW,225,4.0,5.0,31,0.00,,,0.00,WeatherCatV1.15B25,2013-05-16 18:32:00,
2013-05-16 14:37:00,74.4,43.4,29.87,SSW,212,6.0,11.0,33,0.00,,,0.00,WeatherCatV1.15B25,2013-05-16 18:37:00,
2013-05-16 14:42:00,74.6,43.6,29.87,WSW,254,4.0,7.0,33,0.00,,,0.00,WeatherCatV1.15B25,2013-05-16 18:42:00,
2013-05-16 14:47:00,74.8,41.3,29.88,WSW,251,5.0,10.0,30,0.00,,,0.00,WeatherCatV1.15B25,2013-05-16 18:47:00,
2013-05-16 14:52:00,74.3,40.8,29.88,WNW,290,4.0,6.0,30,0.00,,,0.00,WeatherCatV1.15B25,2013-05-16 18:52:00,
2013-05-16 14:57:00,73.6,41.1,29.88,NW,306,4.0,9.0,31,0.00,,,0.00,WeatherCatV1.15B25,2013-05-16 18:57:00,
2013-05-16 15:02:00,72.6,43.4,29.89,WNW,282,3.0,7.0,35,0.00,,,0.00,WeatherCatV1.15B25,2013-05-16 19:02:00,
2013-05-16 15:07:00,71.5,43.1,29.89,West,277,4.0,12.0,36,0.00,,,0.00,WeatherCatV1.15B25,2013-05-16 19:07:00,
2013-05-16 15:12:00,70.0,45.8,29.89,WSW,252,5.0,5.0,42,0.00,,,0.00,WeatherCatV1.15B25,2013-05-16 19:12:00,
2013-05-16 15:17:00,67.6,47.2,29.90,West,274,2.0,5.0,48,0.00,,,0.00,WeatherCatV1.15B25,2013-05-16 19:17:00,
2013-05-16 15:22:00,66.5,46.7,29.90,WSW,250,5.0,7.0,49,0.00,,,0.00,WeatherCatV1.15B25,2013-05-16 19:22:00,
2013-05-16 15:27:00,67.2,47.4,29.90,WNW,290,4.0,6.0,49,0.00,,,0.00,WeatherCatV1.15B25,2013-05-16 19:27:00,
2013-05-16 15:32:00,66.5,47.3,29.90,WSW,253,0.0,10.0,50,0.00,,,0.00,WeatherCatV1.15B25,2013-05-16 19:32:00,
2013-05-16 15:37:00,66.5,47.3,29.90,West,267,4.0,7.0,50,0.00,,,0.00,WeatherCatV1.15B25,2013-05-16 19:37:00,
2013-05-16 15:42:00,66.3,47.6,29.90,WSW,240,3.0,6.0,51,0.00,,,0.00,WeatherCatV1.15B25,2013-05-16 19:42:00,
2013-05-16 15:47:00,65.9,48.8,29.89,SW,219,6.0,6.0,54,0.00,,,0.00,WeatherCatV1.15B25,2013-05-16 19:47:00,
2013-05-16 15:52:00,66.5,47.8,29.89,WNW,291,4.0,5.0,51,0.00,,,0.00,WeatherCatV1.15B25,2013-05-16 19:52:00,
2013-05-16 15:57:00,66.8,49.6,29.89,SW,228,4.0,6.0,54,0.00,,,0.00,WeatherCatV1.15B25,2013-05-16 19:57:00,
2013-05-16 16:02:00,67.2,47.9,29.89,SW,226,0.0,5.0,50,0.00,,,0.00,WeatherCatV1.15B25,2013-05-16 20:02:00,
2013-05-16 16:07:00,67.3,46.9,29.90,WNW,290,0.0,5.0,48,0.00,,,0.00,WeatherCatV1.15B25,2013-05-16 20:07:00,
2013-05-16 16:12:00,67.6,46.6,29.89,WNW,290,3.0,5.0,47,0.00,,,0.00,WeatherCatV1.15B25,2013-05-16 20:12:00,
2013-05-16 16:17:00,67.8,45.7,29.89,West,261,2.0,5.0,45,0.00,,,0.00,WeatherCatV1.15B25,2013-05-16 20:17:00,
2013-05-16 16:22:00,68.2,47.8,29.89,WSW,242,3.0,3.0,48,0.00,,,0.00,WeatherCatV1.15B25,2013-05-16 20:22:00,
2013-05-16 16:27:00,68.8,45.4,29.89,SSW,208,4.0,5.0,43,0.00,,,0.00,WeatherCatV1.15B25,2013-05-16 20:27:00,
2013-05-16 16:32:00,68.8,44.1,29.89,WNW,290,3.0,6.0,41,0.00,,,0.00,WeatherCatV1.15B25,2013-05-16 20:32:00,
2013-05-16 16:37:00,67.7,43.8,29.89,WNW,298,0.0,3.0,42,0.00,,,0.00,WeatherCatV1.15B25,2013-05-16 20:37:00,
2013-05-16 16:42:00,67.5,44.8,29.90,WNW,292,2.0,2.0,44,0.00,,,0.00,WeatherCatV1.15B25,2013-05-16 20:42:00,
2013-05-16 16:47:00,67.3,45.2,29.90,West,265,4.0,5.0,45,0.00,,,0.00,WeatherCatV1.15B25,2013-05-16 20:47:00,
2013-05-16 16:52:00,67.1,43.8,29.90,West,272,3.0,5.0,43,0.00,,,0.00,WeatherCatV1.15B25,2013-05-16 20:52:00,
2013-05-16 16:58:00,67.1,45.6,29.90,WSW,244,3.0,4.0,46,0.00,,,0.00,WeatherCatV1.15B25,2013-05-16 20:58:00,
2013-05-16 17:03:00,66.9,44.9,29.90,WSW,254,0.0,3.0,45,0.00,,,0.00,WeatherCatV1.15B25,2013-05-16 21:03:00,
2013-05-16 17:08:00,66.9,46.6,29.91,SW,236,0.0,2.0,48,0.00,,,0.00,WeatherCatV1.15B25,2013-05-16 21:08:00,
2013-05-16 17:13:00,66.5,46.2,29.91,WSW,243,2.0,2.0,48,0.00,,,0.00,WeatherCatV1.15B25,2013-05-16 21:13:00,
2013-05-16 17:18:00,66.3,48.1,29.91,NW,305,1.0,2.0,52,0.00,,,0.00,WeatherCatV1.15B25,2013-05-16 21:18:00,
2013-05-16 17:23:00,66.3,47.1,29.91,SW,232,3.0,3.0,50,0.00,,,0.00,WeatherCatV1.15B25,2013-05-16 21:23:00,
2013-05-16 17:28:00,66.0,45.7,29.91,WSW,237,4.0,4.0,48,0.00,,,0.00,WeatherCatV1.15B25,2013-05-16 21:28:00,
2013-05-16 17:33:00,66.4,47.2,29.91,WSW,248,3.0,4.0,50,0.00,,,0.00,WeatherCatV1.15B25,2013-05-16 21:33:00,
2013-05-16 17:38:00,67.2,47.4,29.91,WSW,257,2.0,3.0,49,0.00,,,0.00,WeatherCatV1.15B25,2013-05-16 21:38:00,
2013-05-16 17:43:00,67.9,45.8,29.91,WSW,251,0.0,0.0,45,0.00,,,0.00,WeatherCatV1.15B25,2013-05-16 21:43:00,
2013-05-16 17:48:00,68.8,46.6,29.91,WSW,251,2.0,2.0,45,0.00,,,0.00,WeatherCatV1.15B25,2013-05-16 21:48:00,
2013-05-16 17:53:00,69.3,44.6,29.91,SW,228,1.0,3.0,41,0.00,,,0.00,WeatherCatV1.15B25,2013-05-16 21:53:00,
2013-05-16 17:58:00,69.7,44.9,29.91,SW,234,0.0,1.0,41,0.00,,,0.00,WeatherCatV1.15B25,2013-05-16 21:58:00,
2013-05-16 18:03:00,70.3,43.5,29.91,SW,222,2.0,3.0,38,0.00,,,0.00,WeatherCatV1.15B25,2013-05-16 22:03:00,
2013-05-16 18:08:00,70.6,43.0,29.91,West,265,0.0,0.0,37,0.00,,,0.00,WeatherCatV1.15B25,2013-05-16 22:08:00,
2013-05-16 18:13:00,71.1,42.0,29.91,WSW,242,3.0,3.0,35,0.00,,,0.00,WeatherCatV1.15B25,2013-05-16 22:13:00,
2013-05-16 18:18:00,71.2,42.9,29.91,WSW,237,0.0,3.0,36,0.00,,,0.00,WeatherCatV1.15B25,2013-05-16 22:18:00,
2013-05-16 18:23:00,70.9,40.3,29.91,WSW,256,4.0,4.0,33,0.00,,,0.00,WeatherCatV1.15B25,2013-05-16 22:23:00,
2013-05-16 18:28:00,70.5,42.2,29.91,WSW,247,3.0,4.0,36,0.00,,,0.00,WeatherCatV1.15B25,2013-05-16 22:28:00,
2013-05-16 18:33:00,70.5,41.5,29.91,WSW,242,0.0,2.0,35,0.00,,,0.00,WeatherCatV1.15B25,2013-05-16 22:33:00,
2013-05-16 18:38:00,70.7,40.9,29.91,North,0,0.0,3.0,34,0.00,,,0.00,WeatherCatV1.15B25,2013-05-16 22:38:00,
2013-05-16 18:43:00,70.7,40.2,29.91,NE,40,0.0,3.0,33,0.00,,,0.00,WeatherCatV1.15B25,2013-05-16 22:43:00,
2013-05-16 18:48:00,70.8,41.0,29.91,NE,38,0.0,0.0,34,0.00,,,0.00,WeatherCatV1.15B25,2013-05-16 22:48:00,
2013-05-16 18:53:00,70.9,40.3,29.91,NE,36,0.0,3.0,33,0.00,,,0.00,WeatherCatV1.15B25,2013-05-16 22:53:00,
2013-05-16 18:58:00,70.9,39.6,29.91,NE,41,0.0,2.0,32,0.00,,,0.00,WeatherCatV1.15B25,2013-05-16 22:58:00,
2013-05-16 19:03:00,70.6,39.3,29.91,North,350,1.0,4.0,32,0.00,,,0.00,WeatherCatV1.15B25,2013-05-16 23:03:00,
2013-05-16 19:08:00,70.2,40.5,29.91,NNE,19,0.0,0.0,34,0.00,,,0.00,WeatherCatV1.15B25,2013-05-16 23:08:00,
2013-05-16 19:13:00,69.9,40.2,29.91,NNE,19,0.0,0.0,34,0.00,,,0.00,WeatherCatV1.15B25,2013-05-16 23:13:00,
2013-05-16 19:18:00,69.7,40.8,29.91,NNE,20,0.0,1.0,35,0.00,,,0.00,WeatherCatV1.15B25,2013-05-16 23:18:00,
2013-05-16 19:23:00,69.6,42.2,29.91,NNE,19,0.0,0.0,37,0.00,,,0.00,WeatherCatV1.15B25,2013-05-16 23:23:00,
2013-05-16 19:28:00,69.4,41.3,29.91,NE,40,1.0,4.0,36,0.00,,,0.00,WeatherCatV1.15B25,2013-05-16 23:28:00,
2013-05-16 19:33:00,69.1,41.7,29.91,North,9,0.0,0.0,37,0.00,,,0.00,WeatherCatV1.15B25,2013-05-16 23:33:00,
2013-05-16 19:38:00,68.9,39.4,29.92,NNE,20,0.0,1.0,34,0.00,,,0.00,WeatherCatV1.15B25,2013-05-16 23:38:00,
2013-05-16 19:43:00,68.7,39.9,29.92,NNE,21,0.0,0.0,35,0.00,,,0.00,WeatherCatV1.15B25,2013-05-16 23:43:00,
2013-05-16 19:48:00,68.5,42.6,29.92,NE,40,0.0,0.0,39,0.00,,,0.00,WeatherCatV1.15B25,2013-05-16 23:48:00,
2013-05-16 19:53:00,68.2,41.6,29.92,NE,40,0.0,0.0,38,0.00,,,0.00,WeatherCatV1.15B25,2013-05-16 23:53:00,
2013-05-16 19:58:00,67.8,42.6,29.92,NE,40,0.0,0.0,40,0.00,,,0.00,WeatherCatV1.15B25,2013-05-16 23:58:00,
2013-05-16 20:03:00,67.4,40.9,29.91,NE,40,0.0,0.0,38,0.00,,,0.00,WeatherCatV1.15B25,2013-05-17 00:03:00,
2013-05-16 20:08:00,67.1,41.3,29.91,NE,40,0.0,0.0,39,0.00,,,0.00,WeatherCatV1.15B25,2013-05-17 00:08:00,
2013-05-16 20:13:00,66.9,41.8,29.91,NE,40,0.0,0.0,40,0.00,,,0.00,WeatherCatV1.15B25,2013-05-17 00:13:00,
2013-05-16 20:18:00,66.5,40.8,29.91,NE,40,0.0,0.0,39,0.00,,,0.00,WeatherCatV1.15B25,2013-05-17 00:18:00,
2013-05-16 20:23:00,66.2,41.8,29.91,NE,40,0.0,0.0,41,0.00,,,0.00,WeatherCatV1.15B25,2013-05-17 00:23:00,
2013-05-16 20:28:00,65.5,40.5,29.91,NE,40,0.0,0.0,40,0.00,,,0.00,WeatherCatV1.15B25,2013-05-17 00:28:00,
2013-05-16 20:33:00,65.1,41.4,29.92,NE,40,0.0,0.0,42,0.00,,,0.00,WeatherCatV1.15B25,2013-05-17 00:33:00,
2013-05-16 20:38:00,64.6,41.0,29.91,NE,40,0.0,0.0,42,0.00,,,0.00,WeatherCatV1.15B25,2013-05-17 00:38:00,
2013-05-16 20:43:00,64.2,40.6,29.92,NE,40,0.0,0.0,42,0.00,,,0.00,WeatherCatV1.15B25,2013-05-17 00:43:00,
2013-05-16 20:48:00,63.9,41.6,29.92,NE,40,0.0,0.0,44,0.00,,,0.00,WeatherCatV1.15B25,2013-05-17 00:48:00,
2013-05-16 20:53:00,63.5,40.6,29.92,NE,40,0.0,0.0,43,0.00,,,0.00,WeatherCatV1.15B25,2013-05-17 00:53:00,
2013-05-16 20:58:00,63.2,40.3,29.92,NE,40,0.0,0.0,43,0.00,,,0.00,WeatherCatV1.15B25,2013-05-17 00:58:00,
2013-05-16 21:03:00,63.0,40.7,29.92,NE,40,0.0,0.0,44,0.00,,,0.00,WeatherCatV1.15B25,2013-05-17 01:03:00,
2013-05-16 21:08:00,62.8,41.7,29.92,NE,40,0.0,0.0,46,0.00,,,0.00,WeatherCatV1.15B25,2013-05-17 01:08:00,
2013-05-16 21:13:00,62.5,42.0,29.92,NE,40,0.0,0.0,47,0.00,,,0.00,WeatherCatV1.15B25,2013-05-17 01:13:00,
2013-05-16 21:18:00,62.2,43.3,29.93,NE,40,0.0,0.0,50,0.00,,,0.00,WeatherCatV1.15B25,2013-05-17 01:18:00,
2013-05-16 21:23:00,61.9,45.1,29.93,NE,40,0.0,0.0,54,0.00,,,0.00,WeatherCatV1.15B25,2013-05-17 01:23:00,
2013-05-16 21:28:00,61.4,44.1,29.93,NE,40,0.0,0.0,53,0.00,,,0.00,WeatherCatV1.15B25,2013-05-17 01:28:00,
2013-05-16 21:34:00,60.7,45.4,29.93,NE,40,0.0,0.0,57,0.00,,,0.00,WeatherCatV1.15B25,2013-05-17 01:34:00,
2013-05-16 21:39:00,60.4,45.6,29.94,NE,40,0.0,0.0,58,0.00,,,0.00,WeatherCatV1.15B25,2013-05-17 01:39:00,
2013-05-16 21:44:00,60.0,45.6,29.94,NE,40,0.0,0.0,59,0.00,,,0.00,WeatherCatV1.15B25,2013-05-17 01:44:00,
2013-05-16 21:49:00,59.6,45.3,29.94,NE,40,0.0,0.0,59,0.00,,,0.00,WeatherCatV1.15B25,2013-05-17 01:49:00,
2013-05-16 21:54:00,59.2,45.3,29.95,NE,40,0.0,0.0,60,0.00,,,0.00,WeatherCatV1.15B25,2013-05-17 01:54:00,
2013-05-16 21:59:00,58.9,46.3,29.95,NE,40,0.0,0.0,63,0.00,,,0.00,WeatherCatV1.15B25,2013-05-17 01:59:00,
2013-05-16 22:04:00,58.5,45.5,29.95,NE,40,0.0,0.0,62,0.00,,,0.00,WeatherCatV1.15B25,2013-05-17 02:04:00,
2013-05-16 22:09:00,58.0,44.2,29.95,NE,40,0.0,0.0,60,0.00,,,0.00,WeatherCatV1.15B25,2013-05-17 02:09:00,
2013-05-16 22:14:00,57.8,44.0,29.95,NE,40,0.0,0.0,60,0.00,,,0.00,WeatherCatV1.15B25,2013-05-17 02:14:00,
2013-05-16 22:19:00,57.5,44.6,29.95,NE,40,0.0,0.0,62,0.00,,,0.00,WeatherCatV1.15B25,2013-05-17 02:19:00,
2013-05-16 22:24:00,57.3,44.4,29.96,NE,40,0.0,0.0,62,0.00,,,0.00,WeatherCatV1.15B25,2013-05-17 02:24:00,
2013-05-16 22:29:00,57.0,44.5,29.96,NE,40,0.0,0.0,63,0.00,,,0.00,WeatherCatV1.15B25,2013-05-17 02:29:00,
2013-05-16 22:34:00,56.8,44.3,29.96,NE,40,0.0,0.0,63,0.00,,,0.00,WeatherCatV1.15B25,2013-05-17 02:34:00,
2013-05-16 22:39:00,56.6,44.2,29.96,NE,40,0.0,0.0,63,0.00,,,0.00,WeatherCatV1.15B25,2013-05-17 02:39:00,
2013-05-16 22:44:00,56.4,44.4,29.96,NE,40,0.0,0.0,64,0.00,,,0.00,WeatherCatV1.15B25,2013-05-17 02:44:00,
2013-05-16 22:49:00,56.3,45.1,29.96,NE,40,0.0,0.0,66,0.00,,,0.00,WeatherCatV1.15B25,2013-05-17 02:49:00,
2013-05-16 22:54:00,56.1,46.1,29.96,NE,40,0.0,0.0,69,0.00,,,0.00,WeatherCatV1.15B25,2013-05-17 02:54:00,
2013-05-16 22:59:00,55.8,45.8,29.97,NE,40,0.0,0.0,69,0.00,,,0.00,WeatherCatV1.15B25,2013-05-17 02:59:00,
2013-05-16 23:04:00,55.5,45.5,29.96,NE,40,0.0,0.0,69,0.00,,,0.00,WeatherCatV1.15B25,2013-05-17 03:04:00,
2013-05-16 23:09:00,55.2,45.2,29.97,NE,40,0.0,0.0,69,0.00,,,0.00,WeatherCatV1.15B25,2013-05-17 03:09:00,
2013-05-16 23:14:00,55.1,45.9,29.97,NE,40,0.0,0.0,71,0.00,,,0.00,WeatherCatV1.15B25,2013-05-17 03:14:00,
2013-05-16 23:19:00,54.9,45.7,29.97,NE,40,0.0,0.0,71,0.00,,,0.00,WeatherCatV1.15B25,2013-05-17 03:19:00,
2013-05-16 23:24:00,54.7,45.5,29.97,NE,40,0.0,0.0,71,0.00,,,0.00,WeatherCatV1.15B25,2013-05-17 03:24:00,
2013-05-16 23:29:00,54.5,44.9,29.97,NE,40,0.0,0.0,70,0.00,,,0.00,WeatherCatV1.15B25,2013-05-17 03:29:00,
2013-05-16 23:34:00,54.2,45.0,29.97,NE,40,0.0,0.0,71,0.00,,,0.00,WeatherCatV1.15B25,2013-05-17 03:34:00,
2013-05-16 23:39:00,54.1,45.6,29.97,NE,40,0.0,0.0,73,0.00,,,0.00,WeatherCatV1.15B25,2013-05-17 03:39:00,
2013-05-16 23:44:00,54.0,45.5,29.98,NE,40,0.0,0.0,73,0.00,,,0.00,WeatherCatV1.15B25,2013-05-17 03:44:00,
2013-05-16 23:49:00,53.8,45.3,29.98,NE,40,0.0,0.0,73,0.00,,,0.00,WeatherCatV1.15B25,2013-05-17 03:49:00,
2013-05-16 23:54:00,53.7,45.3,29.97,NE,40,0.0,0.0,73,0.00,,,0.00,WeatherCatV1.15B25,2013-05-17 03:54:00,
2013-05-16 23:59:00,53.5,45.1,29.98,NE,40,0.0,0.0,73,0.00,,,0.00,WeatherCatV1.15B25,2013-05-17 03:59:00,